Home > Weather > Rothesay > Past weeks

Flag for Canada Past Weather in Rothesay, New Brunswick, Canada — Yesterday and Last 2 Weeks

Now
59 °F

Clear.


Feels Like: 59 °F
Forecast: 51 / 72 °F
Wind: No wind

Location: Saint John

Current Time: Aug 27, 2016 at 11:26:13 PM

Latest Report: Aug 27, 2016 at 10:00 PM


Visibility: 15 mi

Pressure: 30.25 "Hg

Humidity: 100%

Dew Point: 59 °F

Location of RothesayLocation

Past Weather in Rothesay — Graph

°F

Rothesay Temperature Yesterday

Maximum temperature yesterday: 66 °F (at 3:00 PM)
Minimum temperature yesterday: 61 °F (at 12:00 AM)
Average temperature yesterday: 62 °F

High & Low Weather Summary for the Past Weeks

 TemperatureHumidityPressure
High81 °F (Aug 18, 1:00 PM)100% (Aug 13, 12:00 AM)30.25 "Hg (Aug 13, 12:00 AM)
Low50 °F (Aug 20, 4:00 AM)39% (Aug 23, 2:00 PM)29.71 "Hg (Aug 22, 5:00 PM)
Average64 °F87%29.98 "Hg
* Reported Aug 12 10:00 PM — Aug 27 10:00 PM, Rothesay, Weather by CustomWeather, © 2016

Note: Actual official high and low records may vary slightly from our data, if they occured in-between our weather recording intervals... More about our weather records

Advertising

Rothesay Weather History for the Previous 24 Hours

Scroll right to see more
 ConditionsComfort  
Time TempWeatherWind HumidityBarometerVisibility
10:00 PM
Sat, Aug 27
59 °FClear.No wind100%30.25 "Hg15 mi
9:00 PM64 °FPassing clouds.No wind83%30.23 "Hg15 mi
8:00 PM68 °FPassing clouds.3 mph73%30.21 "Hg15 mi
7:00 PM73 °FPassing clouds.9 mph61%30.18 "Hg15 mi
6:00 PM75 °FPassing clouds.9 mph57%30.16 "Hg15 mi
5:00 PM73 °FScattered clouds.9 mph61%30.15 "Hg15 mi
4:00 PM77 °FScattered clouds.15 mph51%30.14 "Hg15 mi
3:00 PM75 °FBroken clouds.12 mph57%30.13 "Hg15 mi
2:00 PM77 °FPartly sunny.13 mph54%30.12 "Hg15 mi
1:00 PM73 °FBroken clouds.14 mph57%30.12 "Hg15 mi
12:00 PM72 °FBroken clouds.13 mph61%30.11 "Hg15 mi
11:00 AM72 °FScattered clouds.14 mph65%30.09 "Hg15 mi
10:00 AM68 °FPassing clouds.16 mph73%30.08 "Hg15 mi
9:00 AM66 °FPassing clouds.16 mph78%30.06 "Hg15 mi
8:00 AM64 °FPassing clouds.10 mph83%30.05 "Hg15 mi
7:00 AM63 °FPassing clouds.10 mph88%30.03 "Hg15 mi
6:00 AM61 °FPassing clouds.7 mph100%30.00 "Hg15 mi
5:00 AM59 °FClear.3 mph100%29.98 "Hg15 mi
4:00 AM59 °FClear.No wind100%29.96 "Hg15 mi
3:00 AM64 °FClear.10 mph100%29.95 "Hg15 mi
2:00 AM59 °FClear.2 mph100%29.94 "Hg15 mi
1:00 AM61 °FClear.5 mph100%29.93 "Hg3 mi
12:58 AM61 °FFog.5 mph100%29.93 "Hg2 mi
12:00 AM61 °FFog.2 mph100%29.91 "Hg1 mi
11:00 PM
Fri, Aug 26
61 °FFog.3 mph100%29.91 "Hg1 mi
Weather by CustomWeather, © 2016

See weather overviewHow to use our weather pages